Regional Weather Roundup
Issued by NWS

Home | Current Version | Previous Version | Graphics & Text | Print | Product List | Glossary On
Versions: 1 2 3 4 5 6 7 8 9 10 11 12 13 14 15 16 17 18 19 20 21 22 23 24 25 26 27 28 29 30 31 32 33 34 35 36 37 38 39 40 41 42 43 44 45 46 47 48 49 50
000
ASUS43 KBIS 222220
RWRND

NORTH DAKOTA REGIONAL WEATHER ROUNDUP
NATIONAL WEATHER SERVICE BISMARCK ND
400 PM CST SAT NOV 22 2014

NOTE: "FAIR" INDICATES FEW OR NO CLOUDS BELOW 12,000 FEET WITH NO
SIGNIFICANT WEATHER AND/OR OBSTRUCTIONS TO VISIBILITY.


NDZ001>003-009>011-017-222300-
NORTHWEST NORTH DAKOTA

CITY           SKY/WX    TMP DP  RH WIND       PRES   REMARKS
WILLISTON      CLOUDY    41  31  67 SW12      29.25R
MINOT          CLOUDY    42  29  59 SE7       29.27S
MINOT AFB      CLOUDY    40  32  74 SE8       29.26S
$$

NDZ018>021-031>035-040>046-222300-
SOUTHWEST NORTH DAKOTA

CITY           SKY/WX    TMP DP  RH WIND       PRES   REMARKS
BISMARCK       CLOUDY    42  30  62 SW7       29.34F
DICKINSON      LGT RAIN  40  38  93 W15       29.33R
GARRISON         N/A     41  31  67 S7        29.30S
HETTINGER ARPT CLOUDY    42  35  76 NW14      29.38S
$$

NDZ004>008-012>016-024-026-027-054-222300-
NORTHEAST NORTH DAKOTA

CITY           SKY/WX    TMP DP  RH WIND       PRES   REMARKS
GRAND FORKS    CLOUDY    39  31  72 SE10      29.43F
GRND FRKS AFB  CLOUDY    39  31  71 E9        29.42F
DEVILS LAKE    MOCLDY    39  27  60 SE13      29.34F
$$

NDZ022-023-025-028>030-036>039-047>053-222300-
SOUTHEAST NORTH DAKOTA

CITY           SKY/WX    TMP DP  RH WIND       PRES   REMARKS
FARGO          CLOUDY    43  30  60 SE12      29.43F
JAMESTOWN      PTCLDY    41  28  60 S13       29.37F
$$




USA.gov is the U.S. government's official web portal to all federal, state and local government web resources and services.